Regional Weather Roundup
Issued by NWS

Home | Current Version | Previous Version | Graphics & Text | Print | Product List | Glossary On
Versions: 1 2 3 4 5 6 7 8 9 10 11 12 13 14 15 16 17 18 19 20 21 22 23 24 25 26 27 28 29 30 31 32 33 34 35 36 37 38 39 40 41 42 43 44 45 46 47 48 49 50
000
ASUS45 KPSR 232000
RWRAZ

PRELIMINARY ARIZONA REGIONAL HOURLY WEATHER ROUNDUP
NATIONAL WEATHER SERVICE PHOENIX AZ
100 PM MST TUE SEP 23 2014

NOTE: FAIR INDICATES FEW OR NO CLOUDS BELOW 12,000 FEET WITH NO
SIGNIFICANT WEATHER AND/OR OBSTRUCTIONS TO VISIBILITY.

AZZ001>003-036-232100-
NORTHWEST ARIZONA

CITY           SKY/WX    TMP DP  RH WIND       PRES   REMARKS
KINGMAN        SUNNY     88  31  13 MISG      30.11F
$$

AZZ004>008-015-016-018-232100-
NORTH CENTRAL ARIZONA

CITY           SKY/WX    TMP DP  RH WIND       PRES   REMARKS
GRAND CANYON   SUNNY     75  25  15 CALM      30.32F
PRESCOTT       SUNNY     82  38  20 CALM      30.20F
FLAGSTAFF      SUNNY     73  39  29 W12       30.34F
PAYSON         MOSUNNY   81  52  36 VRB5G12   30.22F
PAGE           SUNNY     85  39  19 N8        30.15F
$$

AZZ009>014-017-232100-
NORTHEAST ARIZONA

CITY           SKY/WX    TMP DP  RH WIND       PRES   REMARKS
WINSLOW        NOT AVBL
SAINT JOHNS    MOSUNNY   79  54  41 N5        30.23F
$$

AZZ023-232100-
GREATER PHOENIX AREA

CITY           SKY/WX    TMP DP  RH WIND       PRES   REMARKS
PHOENIX        MOSUNNY   98  51  20 VRB5      29.91F
GLENDALE       MOSUNNY   97  48  19 VRB5      29.93F
DEER VALLEY    SUNNY     97  48  18 VRB3      29.93F
SCOTTSDALE     SUNNY     96  56  26 SW3       29.95F
MESA-GATEWAY   MOSUNNY   97  57  26 W6        29.95F
CHANDLER       MOSUNNY   95  54  24 VRB3      29.93F
$$

AZZ027-028-232100-
SOUTHWEST MARICOPA COUNTY AND PINAL COUNTY

CITY           SKY/WX    TMP DP  RH WIND       PRES   REMARKS
CASA GRANDE    SUNNY     97  61  30 CALM      29.94F
GILA BEND      CLEAR    100  39  12 N3G12     29.92F
$$

AZZ503-504-507>509-232100-
SOUTHEAST ARIZONA

CITY           SKY/WX    TMP DP  RH WIND       PRES   REMARKS
TUCSON         SUNNY     93  60  33 NW5       30.01F
DAVIS-MONTHAN  SUNNY     92  61  35 N6        30.00F
RYAN FIELD       N/A     93  63  36 NW7       30.00F
NOGALES        SUNNY     89  61  38 N9G16     30.08F
SAFFORD        SUNNY     88  63  43 S14       30.06F
$$

AZZ020-021-025-026-031-232100-
SOUTHWEST ARIZONA

CITY           SKY/WX    TMP DP  RH WIND       PRES   REMARKS
YUMA           SUNNY    103  48  15 CALM      29.85F
$$

CAZ031-033-041-043-047-048-061-232100-
SOUTHERN CALIFORNIA

CITY           SKY/WX    TMP DP  RH WIND       PRES   REMARKS
DOWNTOWN L.A.  SUNNY     83  64  52 VRB3      29.94F
L.A. AIRPORT   MOSUNNY   73  62  68 W12       29.96F
SAN DIEGO      MOSUNNY   76  63  64 NW12      29.96F
BURBANK        SUNNY     87  54  32 S10       29.95F
ONTARIO        SUNNY     92  46  20 VRB6      29.95F
RIVERSIDE      SUNNY     92  47  21 VRB6      29.95F
PALM SPRINGS   SUNNY    102  38  11 E8        29.88F
EL CENTRO NAS  MOSUNNY  100  56  23 CALM      29.84F
IMPERIAL       SUNNY     98  61  29 CALM      29.84F
BLYTHE         SUNNY    100  51  19 N5        29.88F
$$

NVZ020-UTZ003-232100-
SOUTHERN NEVADA-UTAH

CITY           SKY/WX    TMP DP  RH WIND       PRES   REMARKS
LAS VEGAS      NOT AVBL
SALT LAKE CITY MOSUNNY   81  46  29 CALM      30.13F
$$

NMZ009-TXZ055-232100-
NEW MEXICO-WEST TEXAS

CITY           SKY/WX    TMP DP  RH WIND       PRES   REMARKS
ALBUQUERQUE    MOSUNNY   75  57  53 SW8       30.23F
EL PASO        MOSUNNY   79  58  48 E3        30.15F
$$


........................KEY........................
SKY/WX - SKY CONDITION/WEATHER
TMP    - TEMPERATURE IN FAHRENHEIT
DP     - DEW POINT IN FAHRENHEIT
RH     - RELATIVE HUMIDITY IN PERCENT
WIND   - DIRECTION AND SPEED IN MILES PER HOUR (MPH)
VRB    - VARIABLE WIND DIRECTION
PRES   - MEAN SEA LEVEL PRESSURE IN INCHES OF MERCURY
         F - FALLING PRESSURE   R - RISING PRESSURE
         S - STEADY PRESSURE
VSB    - VISIBILITY IN MILES
HX     - HEAT INDEX IN FAHRENHEIT
WCI    - WIND CHILL INDEX IN FAHRENHEIT
TC     - TEMPERATURE IN CELSIUS WHICH IS ALSO KNOWN AS
         TEMPERATURE IN CENTIGRADE
AFB    - AIR FORCE BASE
         LUKE AFB IS LUKE AIR FORCE BASE
         DAVIS-MONTHAN IS DAVIS-MONTHAN AIR FORCE BASE
NAS    - NAVAL AIR STATION
         EL CENTRO NAS IS EL CENTRO NAVAL AIR STATION
N/A    - NOT AVAILABLE


USA.gov is the U.S. government's official web portal to all federal, state and local government web resources and services.